Location: Ciserano
(45.5833°N, 9.6000°E)
Time: 08:39:18
(UTC+00:00)

Cosmos 2278 Rocket - Pass Details

Date: 29 November 2020
Orbit: 839 x 847 km, 71.0° (Epoch: 25 January)

Event Time Altitude Azimuth Distance (km) Brightness Sun altitude
Rises 05:24:32 0° 176° (S) 3,378 5.6 -12.8°
Reaches altitude 10° 05:27:10 10° 166° (SSE) 2,449 5.1 -12.3°
Maximum altitude 05:32:07 33° 105° (ESE) 1,395 4.2 -11.5°
Drops below altitude 10° 05:37:05 10° 43° (NE) 2,469 4.9 -10.7°
Sets 05:39:45 0° 34° (NE) 3,410 5.5 -10.3°
